[[{"header":{"parameterUnit":"m.s-1","parameterCategory":1,"la1":30.2991,"la2":30.254,"lo1":-89.0895,"lo2":-89.0444,"dy":0.0017,"dx":0.0017,"nx":28,"ny":28,"refTime":"2023-09-02T09:00:00:Z","depth":0,"parameterNumber":2,"parameterNumberName":"U-component_of_WINDS"},"data":[0,0,0,0,0,0,0,0,0,0,0,0,0,0,0,0,0,0,0,0,0,0,0,0,0,0,0,0,0,0,0,0,0,0,0,0,0,0,0,0,0,0,0,0,0,0,0,0,0,0,0,0,0,0,0,0,0,0,-1.5712,-1.5713,0,-1.5743,-1.5743,-1.5743,-1.5799,-1.58,-1.5801,-1.5802,-1.583,-1.5829,-1.5829,0,0,0,0,0,0,0,0,0,0,0,0,0,-1.5698,-1.5698,-1.5712,-1.5713,-1.5713,-1.5743,-1.5743,-1.5744,-1.5799,-1.58,-1.5801,-1.5803,-1.583,-1.583,-1.5829,0,0,0,0,0,0,0,0,0,0,0,0,0,-1.5714,-1.5698,-1.5712,-1.5744,-1.5748,-1.5743,-1.5743,-1.5744,-1.5799,-1.58,-1.5802,-1.5803,-1.583,-1.583,-1.5829,-1.5794,0,0,-1.5828,-1.5828,0,0,0,0,0,0,0,0,-1.5713,-1.5714,-1.5739,-1.5742,-1.5746,-1.5769,-1.5748,-1.576,-1.5798,-1.5779,-1.5802,-1.5804,-1.5808,-1.5809,-1.5811,-1.5796,-1.5797,-1.5828,-1.5828,-1.5827,-1.5827,0,0,0,0,0,0,0,-1.5711,-1.5713,-1.5724,-1.574,-1.5744,-1.5756,-1.576,-1.5751,-1.5784,-1.5781,-1.5785,-1.5788,-1.581,-1.5812,-1.5813,-1.5797,-1.5828,-1.5828,-1.5827,-1.5827,-1.575,-1.5748,0,0,0,0,0,0,-1.5706,-1.5712,-1.5723,-1.5725,-1.5733,-1.5755,-1.5759,-1.576,-1.5784,-1.579,-1.5787,-1.579,-1.5812,-1.5813,-1.5814,-1.5771,-1.5827,-1.5827,-1.5827,-1.5752,-1.575,-1.5748,0,0,0,0,0,0,-1.5706,-1.5707,-1.5722,-1.572,-1.5723,-1.5753,-1.5753,-1.5759,-1.5761,-1.5789,-1.5794,-1.5782,-1.5813,-1.5814,-1.5798,-1.5773,-1.5827,-1.5827,-1.5754,-1.5751,-1.5749,-1.5687,0,0,0,0,0,0,-1.5705,-1.5706,-1.5694,-1.5719,-1.5723,-1.5707,-1.5752,-1.5759,-1.5761,-1.5766,-1.5786,-1.5791,-1.5814,-1.5798,-1.5798,-1.5773,-1.5826,-1.5756,-1.5753,-1.575,-1.5692,-1.5683,-1.5675,0,0,0,0,0,-1.5704,-1.5676,-1.5694,-1.5695,-1.5709,-1.5706,-1.5707,-1.5736,-1.5759,-1.5746,-1.5763,-1.579,-1.5777,-1.5796,-1.5796,-1.5771,-1.5758,-1.5754,-1.575,-1.5695,-1.5684,-1.5675,0,0,0,0,0,0,-1.5647,-1.568,-1.57,-1.5679,-1.5689,-1.5715,-1.57,-1.5724,-1.5727,-1.5732,-1.5766,-1.577,-1.5748,-1.5759,-1.578,-1.5737,-1.5771,-1.5767,-1.573,-1.572,-1.5712,-1.5708,-1.5826,0,0,0,0,0,-1.5632,-1.5628,-1.5657,-1.5635,-1.564,-1.5669,-1.5669,-1.5689,-1.5701,-1.5705,-1.5722,-1.573,-1.5728,-1.5725,-1.5725,-1.5695,-1.5697,-1.5677,-1.5669,-1.5662,-1.5657,-1.5638,-1.5628,-1.5734,-1.5734,-1.5735,0,0,-1.56,-1.5618,-1.5614,-1.5624,-1.5635,-1.5627,-1.5672,-1.5664,-1.5658,-1.5704,-1.5688,-1.5701,-1.5713,-1.5688,-1.5678,-1.5696,-1.5628,-1.5657,-1.5651,-1.565,-1.5632,-1.5622,-1.5613,-1.5732,-1.5732,-1.5733,0,0,-1.5539,-1.5554,-1.5535,-1.5545,-1.556,-1.558,-1.5575,-1.5597,-1.5607,-1.5593,-1.5626,-1.562,-1.5616,-1.5622,-1.5624,-1.5563,-1.5587,-1.5563,-1.5518,-1.5499,-1.5491,-1.5483,-1.5457,-1.5448,-1.5558,-1.5558,-1.5558,0,-1.5497,-1.5489,-1.5523,-1.5511,-1.5513,-1.5556,-1.5536,-1.5544,-1.5557,-1.5557,-1.5578,-1.5571,-1.5583,-1.5558,-1.5543,-1.5546,-1.5539,-1.5558,-1.549,-1.5482,-1.5476,-1.5451,-1.5442,-1.5554,-1.5555,-1.5555,-1.5555,0,-1.5435,-1.5429,-1.5413,-1.5425,-1.5426,-1.541,-1.5439,-1.5436,-1.5457,-1.5473,-1.5456,-1.5472,-1.5473,-1.547,-1.5491,-1.5448,-1.5458,-1.5484,-1.5518,-1.5462,-1.5439,-1.543,-1.5549,-1.5551,-1.5552,-1.5552,0,0,-1.5336,-1.5367,-1.536,-1.5364,-1.5384,-1.5379,-1.5365,-1.5367,-1.5361,-1.537,-1.5356,-1.5351,-1.5374,-1.5377,-1.5399,-1.5383,-1.5328,-1.541,-1.5411,-1.539,-1.5277,-1.5253,-1.5242,-1.5346,-1.5344,-1.5343,-1.5274,0,-1.5275,-1.5252,-1.5282,-1.5252,-1.5244,-1.5284,-1.5271,-1.528,-1.5295,-1.529,-1.5307,-1.5301,-1.5335,-1.5336,-1.5322,-1.5338,-1.5305,-1.5344,-1.5329,-1.5328,-1.532,-1.5231,-1.5207,-1.5141,-1.5266,-1.5264,-1.5263,0,-1.5201,-1.5205,-1.5174,-1.5193,-1.5191,-1.5179,-1.5181,-1.5177,-1.5188,-1.52,-1.5202,-1.5228,-1.5213,-1.525,-1.5227,-1.5252,-1.5249,-1.5256,-1.5254,-1.525,-1.5289,-1.522,-1.5121,-1.5109,-1.5251,-1.5252,-1.5253,0,-1.5125,-1.5124,-1.5104,-1.5107,-1.5131,-1.512,-1.5129,-1.5142,-1.514,-1.5143,-1.5141,-1.5142,-1.5141,-1.514,-1.5165,-1.519,-1.5137,-1.5177,-1.5143,-1.5142,-1.5127,-1.5126,-1.5021,-1.5132,-1.5133,-1.5133,-1.5133,0,-1.5051,-1.5029,-1.507,-1.5057,-1.5033,-1.5067,-1.5042,-1.5055,-1.5065,-1.5054,-1.509,-1.5079,-1.5114,-1.5106,-1.5125,-1.5101,-1.5102,-1.5108,-1.5112,-1.5102,-1.51,-1.5096,-1.51,-1.513,-1.5131,-1.5131,-1.5132,0,-1.4961,-1.4988,-1.4968,-1.4992,-1.4997,-1.4978,-1.4997,-1.4985,-1.5003,-1.4988,-1.4987,-1.5014,-1.5006,-1.5031,-1.5027,-1.504,-1.5003,-1.5018,-1.4999,-1.5001,-1.4964,-1.4965,-1.4849,-1.4833,-1.4959,-1.4958,-1.4957,0,-1.491,-1.4894,-1.4916,-1.4911,-1.4918,-1.4911,-1.4909,-1.4942,-1.4938,-1.4948,-1.4934,-1.4929,-1.4926,-1.4911,-1.4929,-1.4925,-1.4937,-1.4896,-1.4936,-1.4925,-1.493,-1.4928,-1.4925,-1.4886,-1.4885,-1.4883,-1.4882,0,-1.4814,-1.4828,-1.4825,-1.4826,-1.4823,-1.4825,-1.483,-1.4824,-1.4858,-1.4852,-1.4844,-1.4842,-1.4838,-1.4831,-1.4831,-1.4838,-1.4864,-1.4871,-1.4861,-1.4848,-1.4835,-1.4836,-1.4971,-1.4872,-1.4873,-1.4874,-1.4874,-1.4875,-1.4739,-1.4725,-1.4737,-1.4732,-1.4739,-1.4742,-1.473,-1.4747,-1.4741,-1.474,-1.476,-1.4747,-1.4756,-1.4759,-1.4763,-1.4752,-1.477,-1.4759,-1.4755,-1.475,-1.4741,-1.4842,-1.4753,-1.4754,-1.4754,-1.4754,-1.4754,0,-1.464,-1.465,-1.4645,-1.465,-1.4645,-1.4673,-1.4679,-1.4672,-1.466,-1.4667,-1.4664,-1.4653,-1.4646,-1.4664,-1.4659,-1.4646,-1.4657,-1.4643,-1.4642,-1.4642,-1.4728,-1.4734,-1.4634,-1.4634,-1.4634,-1.4634,-1.4634,-1.4634,-1.4588,-1.4565,-1.458,-1.4559,-1.4569,-1.4557,-1.4557,-1.4559,-1.4565,-1.4551,-1.4545,-1.4558,-1.4568,-1.4564,-1.4558,-1.4563,-1.4557,-1.4538,-1.4546,-1.4625,-1.4637,-1.4648,-1.4653,-1.4537,-1.4537,-1.4461,-1.446,-1.4459]},{"header":{"parameterUnit":"m.s-1","parameterCategory":1,"la1":30.2991,"la2":30.254,"lo1":-89.0895,"lo2":-89.0444,"dy":0.0017,"dx":0.0017,"nx":28,"ny":28,"refTime":"2023-09-02T09:00:00:Z","depth":0,"parameterNumber":3,"parameterNumberName":"V-component_of_WINDS"},"data":[0,0,0,0,0,0,0,0,0,0,0,0,0,0,0,0,0,0,0,0,0,0,0,0,0,0,0,0,0,0,0,0,0,0,0,0,0,0,0,0,0,0,0,0,0,0,0,0,0,0,0,0,0,0,0,0,0,0,-2.0993,-2.0993,0,-2.0977,-2.0976,-2.0976,-2.0956,-2.0956,-2.0955,-2.0955,-2.0938,-2.0938,-2.0938,0,0,0,0,0,0,0,0,0,0,0,0,0,-2.1005,-2.1005,-2.0993,-2.0993,-2.0992,-2.0977,-2.0976,-2.0976,-2.0956,-2.0956,-2.0955,-2.0955,-2.0938,-2.0938,-2.0938,0,0,0,0,0,0,0,0,0,0,0,0,0,-2.0996,-2.1005,-2.0993,-2.098,-2.0979,-2.0977,-2.0976,-2.0976,-2.0956,-2.0956,-2.0955,-2.0955,-2.0938,-2.0938,-2.0938,-2.0946,0,0,-2.0937,-2.0937,0,0,0,0,0,0,0,0,-2.0996,-2.0995,-2.0982,-2.0981,-2.098,-2.0968,-2.0975,-2.0966,-2.0956,-2.0965,-2.0955,-2.0954,-2.0948,-2.0947,-2.0945,-2.0945,-2.0945,-2.0937,-2.0937,-2.0937,-2.0937,0,0,0,0,0,0,0,-2.0997,-2.0996,-2.0986,-2.0982,-2.0981,-2.0975,-2.0973,-2.0973,-2.0959,-2.0964,-2.0963,-2.0961,-2.0948,-2.0946,-2.0945,-2.0944,-2.0937,-2.0937,-2.0937,-2.0937,-2.0949,-2.095,0,0,0,0,0,0,-2.1,-2.0997,-2.0987,-2.0986,-2.0987,-2.0976,-2.0973,-2.0972,-2.0959,-2.0957,-2.0961,-2.096,-2.0946,-2.0945,-2.0944,-2.0952,-2.0937,-2.0937,-2.0936,-2.0949,-2.0949,-2.095,0,0,0,0,0,0,-2.1,-2.0999,-2.0987,-2.0991,-2.0989,-2.0976,-2.0975,-2.0972,-2.097,-2.0957,-2.0955,-2.0962,-2.0946,-2.0944,-2.0945,-2.0951,-2.0937,-2.0936,-2.0948,-2.0949,-2.095,-2.0969,0,0,0,0,0,0,-2.1,-2.0999,-2.1002,-2.0991,-2.0989,-2.0989,-2.0975,-2.0972,-2.097,-2.0968,-2.0957,-2.0955,-2.0945,-2.0946,-2.0945,-2.0951,-2.0936,-2.0948,-2.0948,-2.0949,-2.0967,-2.097,-2.0972,0,0,0,0,0,-2.1001,-2.1008,-2.1003,-2.1002,-2.0993,-2.099,-2.0989,-2.0977,-2.097,-2.0973,-2.0965,-2.0955,-2.0951,-2.0946,-2.0945,-2.0951,-2.0947,-2.0948,-2.0949,-2.0966,-2.0969,-2.0972,0,0,0,0,0,0,-2.1021,-2.1007,-2.1,-2.1004,-2.0998,-2.0986,-2.099,-2.0981,-2.0977,-2.0975,-2.0962,-2.0959,-2.0962,-2.0957,-2.0952,-2.0957,-2.0947,-2.0948,-2.0961,-2.0964,-2.0966,-2.0967,-2.0936,0,0,0,0,0,-2.1026,-2.1025,-2.1013,-2.1017,-2.1015,-2.1003,-2.1001,-2.0993,-2.0987,-2.0984,-2.0976,-2.097,-2.0967,-2.0965,-2.0962,-2.0967,-2.0964,-2.097,-2.0972,-2.0974,-2.0975,-2.0976,-2.0978,-2.0953,-2.0953,-2.0953,0,0,-2.1036,-2.1028,-2.1028,-2.1021,-2.1016,-2.1015,-2.1001,-2.1001,-2.1,-2.0984,-2.0984,-2.0978,-2.097,-2.0973,-2.0974,-2.0968,-2.0981,-2.0975,-2.0977,-2.0977,-2.0977,-2.098,-2.0982,-2.0954,-2.0954,-2.0954,0,0,-2.1053,-2.1048,-2.105,-2.1045,-2.1037,-2.1029,-2.103,-2.1019,-2.1014,-2.1015,-2.1002,-2.1001,-2.0997,-2.0991,-2.0988,-2.1003,-2.0993,-2.1002,-2.1014,-2.1015,-2.1017,-2.1019,-2.1023,-2.1025,-2.1003,-2.1003,-2.1003,0,-2.1066,-2.1065,-2.1053,-2.1053,-2.105,-2.1036,-2.1039,-2.1034,-2.1025,-2.1023,-2.1018,-2.1011,-2.1005,-2.1006,-2.1009,-2.1008,-2.1007,-2.1003,-2.1018,-2.1019,-2.1021,-2.1025,-2.1027,-2.1004,-2.1004,-2.1004,-2.1004,0,-2.1081,-2.108,-2.1083,-2.1075,-2.1072,-2.1074,-2.1062,-2.1061,-2.1053,-2.1046,-2.1046,-2.1038,-2.1032,-2.1032,-2.1024,-2.1031,-2.1028,-2.1021,-2.101,-2.1024,-2.1028,-2.1029,-2.1006,-2.1005,-2.1005,-2.1005,0,0,-2.111,-2.1095,-2.1096,-2.1092,-2.1082,-2.1081,-2.1082,-2.1076,-2.1075,-2.1069,-2.1069,-2.1065,-2.1058,-2.1054,-2.1046,-2.1047,-2.1059,-2.1039,-2.1039,-2.1042,-2.1065,-2.107,-2.1072,-2.1053,-2.1053,-2.1053,-2.1065,0,-2.1124,-2.1125,-2.1114,-2.1117,-2.1116,-2.1102,-2.1103,-2.1096,-2.1089,-2.1087,-2.1079,-2.1076,-2.1067,-2.1065,-2.1066,-2.1057,-2.1063,-2.1056,-2.1051,-2.1051,-2.1053,-2.1074,-2.1079,-2.1091,-2.1066,-2.1067,-2.1067,0,-2.1141,-2.1137,-2.114,-2.1129,-2.1128,-2.1128,-2.1122,-2.112,-2.1113,-2.1107,-2.1103,-2.1094,-2.1093,-2.1084,-2.1082,-2.1078,-2.1075,-2.1071,-2.1071,-2.1069,-2.1059,-2.1072,-2.1094,-2.1096,-2.1069,-2.1069,-2.1069,0,-2.1161,-2.1155,-2.1156,-2.1153,-2.1141,-2.1141,-2.1136,-2.1128,-2.1126,-2.112,-2.1118,-2.1113,-2.111,-2.1106,-2.1095,-2.1089,-2.1094,-2.1084,-2.1089,-2.1089,-2.109,-2.109,-2.1111,-2.109,-2.109,-2.109,-2.109,0,-2.1178,-2.118,-2.1164,-2.1165,-2.1166,-2.1155,-2.1156,-2.115,-2.1143,-2.1141,-2.113,-2.1129,-2.1115,-2.1112,-2.1103,-2.1103,-2.1102,-2.1097,-2.1094,-2.1097,-2.1098,-2.1095,-2.1093,-2.109,-2.109,-2.109,-2.109,0,-2.1199,-2.1189,-2.1189,-2.1178,-2.1175,-2.1176,-2.1166,-2.1166,-2.1158,-2.1156,-2.1155,-2.1143,-2.1139,-2.1128,-2.1121,-2.1116,-2.1117,-2.1113,-2.1119,-2.1118,-2.1123,-2.1122,-2.1142,-2.1144,-2.1122,-2.1123,-2.1123,0,-2.121,-2.1211,-2.12,-2.1198,-2.1194,-2.1191,-2.1188,-2.1176,-2.1174,-2.1165,-2.1165,-2.116,-2.1156,-2.115,-2.114,-2.1134,-2.113,-2.1137,-2.1129,-2.1131,-2.1128,-2.1128,-2.1128,-2.1139,-2.1139,-2.1139,-2.1139,0,-2.123,-2.1225,-2.1221,-2.1216,-2.1213,-2.1208,-2.1202,-2.1202,-2.1188,-2.1186,-2.1182,-2.1178,-2.1171,-2.1166,-2.1158,-2.1153,-2.1144,-2.1142,-2.1143,-2.1145,-2.1149,-2.1146,-2.1123,-2.1142,-2.1141,-2.1141,-2.1141,-2.1141,-2.1246,-2.1246,-2.1238,-2.1234,-2.1229,-2.1224,-2.1222,-2.1215,-2.1211,-2.1204,-2.1198,-2.1194,-2.1186,-2.1175,-2.117,-2.1166,-2.1162,-2.1163,-2.1163,-2.1163,-2.1164,-2.115,-2.1165,-2.1165,-2.1165,-2.1165,-2.1165,0,-2.1264,-2.1258,-2.1255,-2.1248,-2.1244,-2.1237,-2.123,-2.1228,-2.1225,-2.1218,-2.1214,-2.1208,-2.1203,-2.1193,-2.1187,-2.1186,-2.1182,-2.1185,-2.1184,-2.1183,-2.1169,-2.1169,-2.1188,-2.1188,-2.1188,-2.1188,-2.1188,-2.1188,-2.1273,-2.1273,-2.1267,-2.1263,-2.1258,-2.1254,-2.1251,-2.1246,-2.124,-2.1235,-2.1231,-2.1224,-2.1216,-2.1209,-2.1204,-2.1201,-2.1199,-2.1203,-2.1199,-2.1186,-2.1184,-2.1182,-2.1181,-2.1203,-2.1203,-2.1212,-2.1212,-2.1212]}]]